עמוד ראשי
METAR-TAF:

METAR-TAF

שדות תעופה :

El Palmar

Santa Ana, אל סלוודור

קו רוחב: 13-59N, קו אורך: 089-34W, גובה: 725מטר

תצפית מזג אוויר נוכחית

הדו"ח נערך לפני 2 שעות ו 53דקות, בשעה 18:50 UTC
רוח 2קשר מכיוון מזרח
טמפרטורת 33 צלסיוס
לחות 56%
לחץ 1019 hPa
ראות 10 קילומטר או יותר
מעט עננים בגובה 3700רגל

METAR: MSSA 251850Z 09002KT 9999 FEW037 33/23 Q1018 A3008

זמן: 15:43 (21:43 UTC)


TAF: חסר

תצפיות ותחזיות מזג אוויר לגבי יותר מ- 4,000 שדות תעופה ברחבי העולם. דוחות METAR ו- TAF.

התחנות הזמינות מסומנות בנקודות צהובות ואדומות על גבי המפה.

העבר את העכבר לנקודה הצבעונית על מנת לראות את שם התחנה.

לאחר מכן, לחץ כדי לראות את תוכן ואת תחזיות מזג האוויר.

כדי לשנות את המפה: לחץ על הכפתורים הירוקים עם הפלוס השחור כדי להתקרב; על הכפתור הירוק עם המקף כדי להתרחק; או בחיצים הירוקים למפות סמוכות.


METAR-TAF: